| time (UTC) | temp F | wind direction | speed MPH | gust MPH | rain 1hr in | rain 24hr in | rain mn in | humidity % | barometer mb |
| 20260504034519 | 41 | 42 | 1.0 | 3.0 | 0.00 | 0.00 | 0.00 | 87 | 1016.1 |
| 20260504033603 | 40 | 91 | 1.0 | 3.0 | 0.00 | 0.00 | 0.00 | 89 | 1016.1 |
| 20260504032535 | 40 | 116 | 1.0 | 3.0 | 0.00 | 0.00 | 0.00 | 91 | 1016.0 |
| 20260504031527 | 40 | 118 | 1.0 | 3.0 | 0.00 | 0.00 | 0.00 | 92 | 1016.0 |
| 20260504030520 | 40 | 150 | 2.0 | 3.0 | 0.00 | 0.00 | 0.00 | 92 | 1016.0 |
| 20260504025544 | 40 | 150 | 3.0 | 6.0 | 0.00 | 0.00 | 0.00 | 91 | 1015.9 |
| 20260504024536 | 39 | 162 | 3.0 | 6.0 | 0.00 | 0.00 | 0.00 | 92 | 1015.9 |
| 20260504023527 | 39 | 163 | 3.0 | 5.0 | 0.00 | 0.00 | 0.00 | 91 | 1015.8 |
| 20260504022519 | 40 | 109 | 2.0 | 3.0 | 0.00 | 0.00 | 0.00 | 86 | 1015.9 |
| 20260504021543 | 41 | 351 | 2.0 | 5.0 | 0.00 | 0.00 | 0.00 | 83 | 1015.9 |
| 20260504020536 | 41 | 1 | 1.0 | 6.0 | 0.00 | 0.00 | 0.00 | 83 | 1015.9 |
| 20260504015528 | 41 | 359 | 2.0 | 3.0 | 0.00 | 0.00 | 0.00 | 85 | 1015.9 |
| 20260504014540 | 40 | 1 | 2.0 | 5.0 | 0.00 | 0.00 | 0.00 | 90 | 1016.0 |
| 20260504013545 | 39 | 91 | 2.0 | 2.0 | 0.00 | 0.00 | 0.00 | 91 | 1016.2 |
| 20260504012556 | 39 | 64 | 1.0 | 2.0 | 0.00 | 0.00 | 0.00 | 90 | 1016.2 |
| 20260504011548 | 39 | 175 | 1.0 | 5.0 | 0.00 | 0.00 | 0.00 | 89 | 1016.3 |
| 20260504010535 | 39 | 167 | 1.0 | 2.0 | 0.00 | 0.00 | 0.00 | 89 | 1016.4 |
| 20260504005544 | 39 | 245 | 2.0 | 3.0 | 0.00 | 0.00 | 0.00 | 90 | 1016.4 |
| 20260504004535 | 39 | 244 | 3.0 | 6.0 | 0.00 | 0.00 | 0.00 | 90 | 1016.6 |
| 20260504003527 | 40 | 238 | 3.0 | 6.0 | 0.00 | 0.00 | 0.00 | 89 | 1016.6 |
| 20260504002540 | 40 | 250 | 3.0 | 5.0 | 0.00 | 0.00 | 0.00 | 88 | 1016.8 |
| 20260504001545 | 40 | 287 | 2.0 | 3.0 | 0.00 | 0.00 | 0.00 | 87 | 1016.8 |
| 20260504000537 | 40 | 238 | 3.0 | 7.0 | 0.00 | 0.00 | 0.00 | 86 | 1016.8 |
| 20260503235529 | 40 | 253 | 3.0 | 5.0 | 0.00 | 0.00 | 0.00 | 86 | 1016.9 |
| 20260503234520 | 40 | 47 | 1.0 | 3.0 | 0.00 | 0.00 | 0.00 | 85 | 1017.0 |
| 20260503233528 | 42 | 295 | 2.0 | 3.0 | 0.00 | 0.00 | 0.00 | 84 | 1017.0 |
| 20260503232556 | 43 | 350 | 1.0 | 2.0 | 0.00 | 0.00 | 0.00 | 80 | 1017.1 |
| 20260503231527 | 44 | 343 | 3.0 | 6.0 | 0.00 | 0.00 | 0.00 | 77 | 1017.1 |
| 20260503230520 | 45 | 4 | 2.0 | 2.0 | 0.00 | 0.00 | 0.00 | 75 | 1017.2 |
| 20260503225544 | 45 | 359 | 1.0 | 3.0 | 0.00 | 0.00 | 0.00 | 74 | 1017.2 |
| 20260503224616 | 45 | 5 | 2.0 | 5.0 | 0.00 | 0.00 | 0.00 | 74 | 1017.2 |
| 20260503223528 | 45 | 358 | 3.0 | 6.0 | 0.00 | 0.00 | 0.00 | 74 | 1017.2 |
| 20260503222536 | 46 | 359 | 2.0 | 3.0 | 0.00 | 0.00 | 0.00 | 72 | 1017.1 |
| 20260503221528 | 47 | 352 | 5.0 | 8.0 | 0.00 | 0.00 | 0.00 | 70 | 1017.1 |
| 20260503220519 | 47 | 357 | 6.0 | 8.0 | 0.00 | 0.00 | 0.00 | 71 | 1017.2 |
| 20260503215551 | 46 | 18 | 3.0 | 6.0 | 0.00 | 0.00 | 0.00 | 72 | 1017.4 |
| 20260503214541 | 46 | 352 | 4.0 | 7.0 | 0.00 | 0.00 | 0.00 | 73 | 1017.4 |
| 20260503213544 | 46 | 356 | 5.0 | 7.0 | 0.00 | 0.00 | 0.00 | 74 | 1017.4 |
| 20260503212536 | 46 | 5 | 3.0 | 6.0 | 0.00 | 0.00 | 0.00 | 75 | 1017.5 |
| 20260503211600 | 45 | 357 | 3.0 | 5.0 | 0.00 | 0.00 | 0.00 | 77 | 1017.3 |
| 20260503210536 | 45 | 355 | 6.0 | 8.0 | 0.00 | 0.00 | 0.00 | 78 | 1017.4 |
| 20260503205529 | 44 | 351 | 6.0 | 8.0 | 0.00 | 0.00 | 0.00 | 78 | 1017.2 |
| 20260503204536 | 45 | 349 | 5.0 | 8.0 | 0.00 | 0.00 | 0.00 | 78 | 1017.3 |
| 20260503203604 | 46 | 358 | 4.0 | 6.0 | 0.00 | 0.00 | 0.00 | 74 | 1017.3 |
| 20260503202521 | 47 | 1 | 4.0 | 8.0 | 0.00 | 0.00 | 0.00 | 73 | 1017.4 |
| 20260503201528 | 47 | 358 | 3.0 | 5.0 | 0.00 | 0.00 | 0.00 | 73 | 1017.5 |
| 20260503200519 | 47 | 0 | 4.0 | 6.0 | 0.00 | 0.00 | 0.00 | 73 | 1017.6 |
| 20260503195528 | 47 | 353 | 2.0 | 7.0 | 0.00 | 0.00 | 0.00 | 75 | 1017.6 |
| 20260503194540 | 47 | 3 | 4.0 | 7.0 | 0.00 | 0.00 | 0.00 | 74 | 1017.6 |
| 20260503193534 | 48 | 358 | 4.0 | 9.0 | 0.00 | 0.00 | 0.00 | 69 | 1017.6 |
| 20260503192520 | 48 | 2 | 3.0 | 7.0 | 0.00 | 0.00 | 0.00 | 69 | 1017.8 |
| 20260503191600 | 49 | 348 | 3.0 | 6.0 | 0.00 | 0.00 | 0.00 | 69 | 1017.7 |
| 20260503190541 | 49 | 10 | 3.0 | 6.0 | 0.00 | 0.00 | 0.00 | 69 | 1017.9 |
| 20260503185544 | 50 | 7 | 4.0 | 7.0 | 0.00 | 0.00 | 0.00 | 68 | 1018.0 |
| 20260503184539 | 50 | 357 | 4.0 | 8.0 | 0.00 | 0.00 | 0.00 | 66 | 1018.1 |
| 20260503183544 | 50 | 20 | 3.0 | 6.0 | 0.00 | 0.00 | 0.00 | 63 | 1018.2 |
| 20260503182536 | 50 | 4 | 3.0 | 7.0 | 0.00 | 0.00 | 0.00 | 62 | 1018.3 |
| 20260503181529 | 51 | 13 | 1.0 | 5.0 | 0.00 | 0.00 | 0.00 | 62 | 1018.4 |
| 20260503180552 | 51 | 48 | 1.0 | 2.0 | 0.00 | 0.00 | 0.00 | 61 | 1018.5 |
| 20260503175547 | 51 | 14 | 1.0 | 3.0 | 0.00 | 0.00 | 0.00 | 60 | 1018.4 |
| 20260503174528 | 51 | 353 | 2.0 | 3.0 | 0.00 | 0.00 | 0.00 | 60 | 1018.4 |
| 20260503173544 | 51 | 62 | 1.0 | 2.0 | 0.00 | 0.00 | 0.00 | 61 | 1018.3 |
| 20260503173355 | 52 | 53 | 3.0 | 6.0 | 0.00 | 0.00 | 0.00 | 60 | 1018.3 |
| 20260503171545 | 52 | 52 | 3.0 | 6.0 | 0.00 | 0.00 | 0.00 | 61 | 1018.3 |
| 20260503170520 | 52 | 48 | 3.0 | 8.0 | 0.00 | 0.00 | 0.00 | 63 | 1018.3 |
| 20260503131026 | 54 | 60 | 5.0 | 14.0 | 0.00 | 0.00 | 0.00 | 69 | 1018.6 |
| 20260503081045 | 48 | 5 | 6.0 | 13.0 | 0.00 | 0.00 | 0.00 | 81 | 1019.9 |
| 20260503072033 | 49 | 353 | 7.0 | 18.0 | 0.00 | 0.00 | 0.00 | 78 | 1019.7 |
| 20260503071036 | 50 | 35 | 8.0 | 15.0 | 0.00 | 0.00 | 0.00 | 77 | 1019.7 |
| 20260503070556 | 49 | 332 | 7.0 | 13.0 | 0.00 | 0.00 | 0.00 | 77 | 1019.7 |
| 20260503055025 | 49 | 29 | 5.0 | 16.0 | 0.00 | 0.00 | 0.00 | 75 | 1019.6 |
| 20260503054033 | 47 | 339 | 8.0 | 14.0 | 0.00 | 0.00 | 0.00 | 79 | 1019.4 |
| 20260503053041 | 47 | 33 | 6.0 | 14.0 | 0.00 | 0.00 | 0.00 | 79 | 1019.2 |
| 20260503052033 | 46 | 357 | 8.0 | 13.0 | 0.00 | 0.00 | 0.00 | 81 | 1019.3 |
| 20260503051025 | 45 | 6 | 7.0 | 16.0 | 0.00 | 0.00 | 0.00 | 83 | 1019.4 |
| 20260503050033 | 45 | 356 | 7.0 | 13.0 | 0.00 | 0.00 | 0.00 | 84 | 1019.3 |
| 20260503045041 | 44 | 2 | 8.0 | 14.0 | 0.00 | 0.00 | 0.00 | 84 | 1019.3 |
| 20260503044055 | 44 | 355 | 8.0 | 15.0 | 0.00 | 0.00 | 0.00 | 85 | 1019.3 |
| 20260503043025 | 44 | 5 | 8.0 | 16.0 | 0.00 | 0.00 | 0.00 | 85 | 1019.2 |
| 20260503042033 | 44 | 356 | 7.0 | 14.0 | 0.00 | 0.00 | 0.00 | 86 | 1019.3 |
| 20260503041025 | 43 | 354 | 7.0 | 11.0 | 0.00 | 0.00 | 0.00 | 87 | 1019.3 |
| 20260503040049 | 43 | 357 | 8.0 | 14.0 | 0.00 | 0.00 | 0.00 | 87 | 1019.2 |
| 20260503035041 | 43 | 11 | 8.0 | 11.0 | 0.00 | 0.00 | 0.00 | 87 | 1019.2 |